Newark, OH

6:42 AM EST on February 08, 2016 (GMT -0500)
Newark Heath

Weather History for KVTA - January, 2012

Change the Weather History Date:

Sunday, January 29, 2012

  Actual Average Record
Temperature  
Mean Temperature 34 °F -  
Max Temperature 41 °F 36 °F 41 °F (2015)
Min Temperature 27 °F 19 °F -22 °F (2014)
Degree Days  
Heating Degree Days 31    
Moisture  
Dew Point 20 °F    
Average Humidity 63    
Maximum Humidity 75    
Minimum Humidity 43    
Precipitation  
Precipitation 0.00 in - - ()
Sea Level Pressure  
Sea Level Pressure 30.16 in    
Wind  
Wind Speed 12 mph (WSW)    
Max Wind Speed 25 mph    
Max Gust Speed 46 mph    
Visibility 9 miles    
Events Snow    
Averages and records for this station are not official NWS values.
T = Trace of Precipitation, MM = Missing Value Source: NWS Daily Summary

Daily Weather History Graph

Daily Weather History Graph

Search for Another Location

Airport or City:

Trip Planner

Search our weather history database for the weather conditions in past years. The results will help you decide how hot, cold, wet, or windy it might be!

Date:

Astronomy

Jan. 29, 2012 Rise Set
Actual Time 7:41 AM EST 5:44 PM EST
Civil Twilight 7:12 AM EST 6:13 PM EST
Nautical Twilight 6:40 AM EST 6:46 PM EST
Astronomical Twilight 6:08 AM EST 7:18 PM EST
Moon 10:32 AM EST (1/29) No Moon Set
Length of Visible Light 11h 01m
Length of Day
10h 03m
Waxing Crescent, 36% of the Moon is Illuminated
Jan 29
Waxing Crescent
Jan 30
First Quarter
Feb 7
Full
Feb 14
Last Quarter
Feb 21
New

Hourly Weather History & Observations

Time (EST) Temp. Windchill Dew Point Humidity Pressure Visibility Wind Dir Wind Speed Gust Speed Precip Events Conditions
12:54 AM 30.0 °F 21.1 °F 17.1 °F 59% 30.22 in 10.0 mi SW 10.4 mph - N/A   Clear
1:54 AM 28.9 °F 20.4 °F 18.0 °F 64% 30.22 in 10.0 mi SW 9.2 mph - N/A   Clear
2:54 AM 28.9 °F 21.1 °F 18.0 °F 64% 30.22 in 10.0 mi SW 8.1 mph - N/A   Clear
3:54 AM 28.0 °F 21.7 °F 19.0 °F 69% 30.21 in 10.0 mi SSW 5.8 mph - N/A   Clear
5:54 AM 28.0 °F 20.0 °F 19.0 °F 69% 30.18 in 10.0 mi SSW 8.1 mph - N/A   Scattered Clouds
6:54 AM 30.0 °F 22.4 °F 19.0 °F 64% 30.17 in 10.0 mi SSW 8.1 mph - N/A   Overcast
7:54 AM 30.0 °F 22.4 °F 18.0 °F 61% 30.17 in 10.0 mi SSW 8.1 mph - N/A   Clear
8:54 AM 32.0 °F 23.0 °F 18.0 °F 56% 30.15 in 10.0 mi SSW 11.5 mph - N/A   Clear
9:54 AM 34.0 °F 24.6 °F 19.9 °F 56% 30.15 in 10.0 mi SW 13.8 mph 21.9 mph N/A   Clear
10:54 AM 36.0 °F 25.3 °F 19.9 °F 52% 30.14 in 10.0 mi SW 19.6 mph 27.6 mph N/A   Clear
11:54 AM 37.0 °F 26.2 °F 21.0 °F 52% 30.11 in 10.0 mi SW 21.9 mph 28.8 mph N/A   Clear
12:54 PM 39.0 °F 31.4 °F 23.0 °F 53% 30.05 in 10.0 mi SSW 12.7 mph 21.9 mph N/A   Clear
1:54 PM 41.0 °F 31.1 °F 21.0 °F 45% 30.00 in 10.0 mi SSW 23.0 mph 26.5 mph N/A   Mostly Cloudy
2:54 PM 41.0 °F 30.9 °F 19.9 °F 43% 29.99 in 10.0 mi SW 24.2 mph 35.7 mph N/A   Overcast
3:54 PM 36.0 °F 24.4 °F 26.1 °F 67% 30.06 in 6.0 mi WNW 23.0 mph 46.0 mph 0.00 in Snow Light Snow
4:44 PM 32.0 °F 18.6 °F 23.0 °F 69% 30.07 in 1.5 mi West 25.3 mph 44.9 mph 0.00 in Snow Light Snow
4:52 PM 32.0 °F 21.2 °F 24.8 °F 75% 30.08 in 2.0 mi West 16.1 mph 33.4 mph 0.00 in Snow Light Snow
4:54 PM 32.0 °F 19.5 °F 23.0 °F 69% 30.11 in 5.0 mi West 21.9 mph 26.5 mph 0.00 in Snow Light Snow
5:54 PM 33.1 °F 21.2 °F 19.0 °F 56% 30.14 in 10.0 mi WNW 20.7 mph 31.1 mph 0.00 in   Clear
6:54 PM 30.9 °F 21.7 °F 21.0 °F 67% 30.19 in 10.0 mi WNW 11.5 mph - N/A   Partly Cloudy
7:54 PM 30.9 °F 21.2 °F 23.0 °F 72% 30.23 in 10.0 mi WNW 12.7 mph - 0.00 in   Overcast
8:54 PM 28.9 °F 19.8 °F 19.9 °F 69% 30.25 in 10.0 mi WNW 10.4 mph - N/A   Partly Cloudy
9:54 PM 28.0 °F 20.0 °F 19.0 °F 69% 30.26 in 10.0 mi West 8.1 mph - N/A   Clear
10:54 PM 27.0 °F 20.5 °F 19.9 °F 75% 30.28 in 10.0 mi West 5.8 mph - N/A   Scattered Clouds
11:54 PM 27.0 °F 20.5 °F 19.9 °F 75% 30.29 in 10.0 mi WNW 5.8 mph - N/A   Clear